Regional Weather Roundup
Issued by NWS Little Rock, AR

Home | Current Version | Previous Version | Graphics & Text | Print | Product List | Glossary On
Versions: 1 2 3 4 5 6 7 8 9 10 11 12 13 14 15 16 17 18 19 20 21 22 23 24 25 26 27
000
ASUS44 KLZK 251805
RWRLZK

WEATHER ROUNDUP FOR ARKANSAS
NATIONAL WEATHER SERVICE LITTLE ROCK AR
100 PM CDT WED MAY 25 2016

NOTE: "FAIR" INDICATES FEW OR NO CLOUDS BELOW 12,000 FEET WITH NO
SIGNIFICANT WEATHER AND/OR OBSTRUCTIONS TO VISIBILITY.

ARZ001-003-010-029-251900-
NORTHWEST ARKANSAS

CITY           SKY/WX    TMP DP  RH WIND       PRES   REMARKS
FAYETTEVILLE   SUNNY     76  67  73 S7        30.00F
6HR MIN TEMP:  61; 6HR MAX TEMP:  76; 6HR PCP:  1.13;

FORT SMITH     CLOUDY    73  65  75 E9        30.02F
6HR MIN TEMP:  66; 6HR MAX TEMP:  73; 6HR PCP:  0.22;

HARRISON       CLOUDY    69  64  84 S9        30.02R
6HR MIN TEMP:  62; 6HR MAX TEMP:  69; 6HR PCP:  0.57;

BENTONVILLE    SUNNY     75  61  60 S13       30.00F
6HR MIN TEMP:  63; 6HR MAX TEMP:  75; 6HR PCP:  1.00;

ROGERS         SUNNY     75  63  66 SE14      30.00S
6HR MIN TEMP:  62; 6HR MAX TEMP:  75; 6HR PCP:  0.67;

SILOAM SPGS    MOSUNNY   77  61  57 S12       30.00F
6HR MIN TEMP:  63; 6HR MAX TEMP:  77; 6HR PCP:  1.38;

$$

ARZ004-005-016-251900-
NORTH CENTRAL ARKANSAS

CITY           SKY/WX    TMP DP  RH WIND       PRES   REMARKS
BATESVILLE     CLOUDY    70  66  88 W5G23     30.15R THUNDER
6HR MIN TEMP:  66; 6HR MAX TEMP:  73; 6HR PCP:  0.26;

FLIPPIN        CLOUDY   N/A N/A N/A SE5       29.97F
                                      6HR PCP:  0.36;

MTN HOME       CLOUDY    64  62  93 E12       29.97F
6HR MIN TEMP:  61; 6HR MAX TEMP:  68; 6HR PCP:  0.23;

$$

ARZ040-041-251900-
WEST CENTRAL ARKANSAS

CITY           SKY/WX    TMP DP  RH WIND       PRES   REMARKS
MENA           CLOUDY    79  77  94 CALM      30.07S
MOUNT IDA      CLOUDY    77  72  84 CALM      30.05R
6HR MIN TEMP:  65; 6HR MAX TEMP:  79; 6HR PCP:  0.13;

$$

ARZ009-017-025-026-028-251900-
NORTHEAST ARKANSAS

CITY           SKY/WX    TMP DP  RH WIND       PRES   REMARKS
CORNING        LGT RAIN  77  72  83 SW15      30.08S
JONESBORO      PTSUNNY   74  67  78 W9        30.09R
6HR MIN TEMP:  66; 6HR MAX TEMP:  74; 6HR PCP:  0.26;

NEWPORT        TSTM      75  71  87 W6        30.11S
6HR MIN TEMP:  66; 6HR MAX TEMP:  77; 6HR PCP:  0.26;

WALNUT RIDGE   PTSUNNY   75  64  69 SW16      30.10S
6HR MIN TEMP:  63; 6HR MAX TEMP:  75; 6HR PCP:  0.06;

BLYTHEVILLE    CLOUDY    73  69  87 S12       30.08R
6HR MIN TEMP:  67; 6HR MAX TEMP:  76; 6HR PCP:  0.08;

NW BLYTHEVILLE CLOUDY    73  68  83 SW12G18   30.08R
$$

ARZ022-023-033-042-044-251900-
CENTRAL ARKANSAS

CITY           SKY/WX    TMP DP  RH WIND       PRES   REMARKS
LITTLE ROCK    CLOUDY    79  70  74 S3        30.07S
6HR MIN TEMP:  68; 6HR MAX TEMP:  80; 6HR PCP:  0.08;

N LITTLE ROCK    N/A     77  69  78 S3        30.06R
6HR MIN TEMP:  67; 6HR MAX TEMP:  77;

JACKSONVILLE   PTSUNNY   79  69  72 S2        30.07S
6HR MIN TEMP:  67; 6HR MAX TEMP:  80; 6HR PCP:  0.12;

SEARCY         MOSUNNY   77  70  78 NW12G32   30.13R
6HR MIN TEMP:  65; 6HR MAX TEMP:  81; 6HR PCP:  0.20;

HOT SPRINGS    PTSUNNY   80  71  74 SW6       30.07R
6HR MIN TEMP:  66; 6HR MAX TEMP:  81; 6HR PCP:  0.35;

RUSSELLVILLE   PTSUNNY   69  66  90 VRB5      30.05F
6HR MIN TEMP:  65; 6HR MAX TEMP:  71; 6HR PCP:  0.78;

CLINTON        RAIN      66  64  94 E8        30.06F
$$

ARZ036-251900-
EAST ARKANSAS

CITY           SKY/WX    TMP DP  RH WIND       PRES   REMARKS
WEST MEMPHIS   PTSUNNY   81  72  74 S13       30.09S HX  85
6HR MIN TEMP:  66; 6HR MAX TEMP:  81;

$$

ARZ050-053-066-070-073-251900-
SOUTHWEST ARKANSAS

CITY           SKY/WX    TMP DP  RH WIND       PRES   REMARKS
ARKADELPHIA    MOCLDY    86  80  82 S7        30.04S HX 101
6HR MIN TEMP:  70; 6HR MAX TEMP:  88;

CAMDEN         CLOUDY    82  72  69 S6        30.05S HX  87
TEXARKANA      CLOUDY    85  73  67 S10       30.02S HX  91
6HR MIN TEMP:  74; 6HR MAX TEMP:  85;

EL DORADO      PTSUNNY   86  73  65 S10       30.05F HX  93
6HR MIN TEMP:  75; 6HR MAX TEMP:  86;

DE QUEEN       CLOUDY    83  74  74 S8        30.00S HX  89
6HR MIN TEMP:  75; 6HR MAX TEMP:  84;

$$

ARZ056-057-069-251900-
SOUTHEAST ARKANSAS

CITY           SKY/WX    TMP DP  RH WIND       PRES   REMARKS
PINE BLUFF     CLOUDY    82  71  69 S13       30.07S HX  86
6HR MIN TEMP:  69; 6HR MAX TEMP:  82; 6HR PCP: TRACE;

STUTTGART      CLOUDY    84  70  61 SW13G18   30.09S HX  88
6HR MIN TEMP:  70; 6HR MAX TEMP:  84;

MONTICELLO     CLOUDY    84  72  67 S9        30.08S HX  89
6HR MIN TEMP:  69; 6HR MAX TEMP:  85;


$$






USA.gov is the U.S. government's official web portal to all federal, state and local government web resources and services.